Terug naar catalogus

TITAN 3C TRANSTAGE DEB

LostMEO
NORAD 59981·DEBRIS·🇺🇸 United States

Gelanceerd Sep 26, 1968 vanaf Cape Canaveral Space Force Station

Loading…

Volgende Passages (komende 24 uur)

TLE

VerouderdSource: Space-Track

Epoch: Aug 6, 2026, 06:41 UTC

1 59981U 68081AP  26218.27899737 -.00000045  00000-0  00000-0 0  9996
2 59981   2.4815  50.1921 0213217 254.1985 344.9116  1.00894743 61362

Volg TITAN 3C TRANSTAGE DEB in realtime met AllMySat

Download on the App Store